Regional Weather Roundup
Issued by NWS

Home | Current Version | Previous Version | Text Only | Print | Product List | Glossary On
Versions: 1 2 3 4 5 6 7 8 9 10 11 12 13 14 15 16 17 18 19 20 21 22 23 24 25 26 27 28 29 30 31 32 33 34 35 36 37 38 39 40 41 42 43 44 45 46 47 48 49 50
000
ASUS43 KMPX 022310
RWRMN
WEATHER ROUNDUP FOR MINNESOTA
NATIONAL WEATHER SERVICE TWIN CITIES/CHANHASSEN MN
600 PM CDT TUE SEP 02 2014


NOTE: "FAIR" INDICATES FEW OR NO CLOUDS BELOW 12,000 FEET WITH NO
SIGNIFICANT WEATHER AND/OR OBSTRUCTIONS TO VISIBILITY. N/A MEANS
CURRENT SKY AND/OR WEATHER CONDITIONS ARE NOT AVAILABLE.

MNZ060>063-068>070-030000-
   Twin Cities Metro

CITY           SKY/WX    TMP DP  RH WIND       PRES   REMARKS
TWIN CITIES    MOSUNNY   77  49  37 SW10      29.88S
ST PAUL        SUNNY     76  50  40 W12       29.88S
CRYSTAL        SUNNY     77  50  38 SW13      29.86F
BLAINE         SUNNY     79  52  38 SW9       29.87F
LAKEVILLE      SUNNY     73  55  53 W5        29.89F
EDEN PRAIRIE   SUNNY     77  53  43 SW9       29.87F
SOUTH ST PAUL  SUNNY     77  49  37 W8        29.88S
LAKE ELMO      FAIR      75  52  43 SW13      29.89S
$$
MNZ001>005-007-008-013>017-022>024-027-028-030000-
   Northwest Minnesota

CITY           SKY/WX    TMP DP  RH WIND       PRES   REMARKS
BEMIDJI        SUNNY     73  54  50 SW10      29.75F
HALLOCK        MOSUNNY   61  57  88 E10       29.66F
ROSEAU         RAIN      64  55  72 NW8       29.76R
WARROAD        CLOUDY    64  59  82 SW7       29.75R
THIEF RVR FALL MOSUNNY   75  55  50 S17       29.70S
CROOKSTON      SUNNY     77  55  47 SW16      29.70S
FOSSTON        MOSUNNY   73  54  49 SW16      29.74S
DETROIT LAKES  SUNNY     75  48  38 SW15      29.78F
MOORHEAD       SUNNY     79  55  44 SW13G20   29.74F
PARK RAPIDS    SUNNY     74  52  46 SW18G24   29.78F
MAHNOMEN       FAIR      73  54  50 SW14G22   29.75S
$$
MNZ006-009>011-018-025>026-030000-
   North Central Minnesota

CITY           SKY/WX    TMP DP  RH WIND       PRES   REMARKS
BAUDETTE       PTSUNNY   68  55  63 SW5       29.72S
FLAG ISLAND    CLOUDY    66  54  63 S3        29.71F
INTL FALLS     MOSUNNY   70  50  49 SW9       29.74S
WASKISH        MOSUNNY   72  57  60 SW5       29.74S
BIG FORK       SUNNY     68  55  64 SE3       29.77F
LONGVILLE      SUNNY     73  52  46 SW8G17    29.78F
GRAND RAPIDS   SUNNY     72  52  49 SW9       29.79S
CRANE LAKE     PTSUNNY   66  50  55 S7        29.78F
ORR            MOSUNNY   66  50  55 S5        29.76S
COOK           MOSUNNY   63  55  77 SE6       29.79F
WALKER         FAIR      73  52  48 SW10G17   29.77S
$$
MNZ012-019>021-037-030000-
   Northeast Minnesota

CITY           SKY/WX    TMP DP  RH WIND       PRES   REMARKS
DULUTH         PTSUNNY   65  51  60 N13G21    29.83R
ELY            CLOUDY    57  54  88 SW5       29.80F
HIBBING        MOSUNNY   63  55  75 SE3       29.81F
EVELETH        PTSUNNY   61  55  82 CALM      29.82F
DULUTH HARBOR  MOSUNNY   75  54  46 SW13      29.80S
TWO HARBORS    TSTM      57  52  82 NW12G31   29.84R
SILVER BAY     TSTM      55  55 100 NW9G21    29.84R
GRAND MARAIS     N/A     64  58  80 VRB3      29.76S
G MARAIS ARPRT MOSUNNY   63  52  67 S5        29.81S
$$
MNZ029>031-032-039>041-046>048-054>057-064-030000-
   West Central Minnesota

CITY           SKY/WX    TMP DP  RH WIND       PRES   REMARKS
FERGUS FALLS   SUNNY     75  48  38 SW15      29.78F
WHEATON        MOSUNNY   75  54  46 SW13      29.82S
MORRIS         MOSUNNY   79  55  44 SW9G16    29.83S
ALEXANDRIA     SUNNY     74  54  49 SW13      29.85F
ELBOW LAKE     FAIR      72  56  58 SW9       29.81F
WADENA         SUNNY     73  54  49 SW10      29.80F
GLENWOOD       SUNNY     73  55  53 S8        29.86S
APPLETON       MOSUNNY   75  52  43 SW7       29.84S
BENSON         MOSUNNY   77  55  47 W14       29.84F
ORTONVILLE     SUNNY     75  54  46 SW6       29.84S
MADISON        SUNNY     75  59  57 SW8       29.86S
WILLMAR        FAIR      75  54  46 SW10      29.88S
$$
MNZ033>034-036-042>043-049>051-058-059-030000-
   Central Minnesota

CITY           SKY/WX    TMP DP  RH WIND       PRES   REMARKS
ST CLOUD       SUNNY     78  53  41 SW16      29.85F
SAUK CENTRE    FAIR      73  55  53 SW10      29.85F
PAYNESVILLE    HVY RAIN  71  52  51 S8        29.87S
AITKIN         SUNNY     75  52  43 SW10G17   29.81S
PINE RIVER     SUNNY     73  54  49 SW10G16   29.83F
BRAINERD       SUNNY     73  51  46 SW15      29.82S
STAPLES        SUNNY     73  52  46 SW13      29.81F
LONG PRAIRIE   FAIR      73  54  49 S13       29.84F
LITTLE FALLS   SUNNY     73  52  46 S8        29.84F
LITCHFIELD     SUNNY     77  54  44 SW6       29.88S
BUFFALO        SUNNY     75  52  45 SW7       29.88F
MAPLE LAKE     SUNNY     75  57  53 SW3       29.88S
$$
MNZ037-044-045-052-053-030000-
   East Central Minnesota

CITY           SKY/WX    TMP DP  RH WIND       PRES   REMARKS
PRINCETON      SUNNY     77  52  41 SW7G16    29.87S
MORA           SUNNY     73  50  43 SW10G18   29.87S
CAMBRIDGE      SUNNY     77  55  47 SW8       29.85S
RUSH CITY      SUNNY     74  53  46 SW8       29.86S
MOOSE LAKE     SUNNY     73  52  46 SW10G16   29.81S
HINCKLEY       FAIR      73  54  49 SW8       29.84F
CLOQUET        PTSUNNY   72  48  43 SW13      29.82S
MCGREGOR       MOSUNNY   73  50  43 SW12G18   29.82S
$$
MNZ071>073-080-081-089-090-097-098-030000-
   Southwest Minnesota

CITY           SKY/WX    TMP DP  RH WIND       PRES   REMARKS
MONTEVIDEO     SUNNY     79  55  44 W8        29.86F
GRANITE FALLS  SUNNY     73  56  53 SW7       29.88F
CANBY          SUNNY     76  52  42 SW9       29.87F
MARSHALL       SUNNY     77  52  41 W13       29.87F
REDWOOD FALLS  MOSUNNY   77  54  44 SW14      29.88F
OLIVIA         SUNNY     77  54  44 SW9       29.87F
PIPESTONE      SUNNY     73  54  49 SW9       29.92F
WINDOM         MOSUNNY   73  55  53 SW13      29.92F
WORTHINGTON    SUNNY     73  55  53 SW8       29.95F
JACKSON        SUNNY     73  54  49 SW9       29.94F
TRACY          MOSUNNY   76  56  50 SW10      29.90F
SLAYTON        MOSUNNY   73  54  51 CALM      29.93F
$$
MNZ065>067-074>077-082>085-091>093-030000-
   South Central Minnesota

CITY           SKY/WX    TMP DP  RH WIND       PRES   REMARKS
MANKATO        MOSUNNY   75  55  50 SW12      29.90F
NEW ULM        MOSUNNY   75  57  53 SW10      29.90S
ST JAMES       SUNNY     79  55  44 SW9       29.92S
FAIRMONT       MOSUNNY   75  54  46 SW10      29.92F
GLENCOE        SUNNY     76  51  41 SW6       29.88F
FARIBAULT      SUNNY     79  52  38 SW7       29.91S
OWATONNA       SUNNY     75  57  53 SW8       29.91F
WASECA         MOSUNNY   73  52  46 SW8       29.93S
ALBERT LEA     SUNNY     75  55  50 W6        29.92F
$$
MNZ078>079-086>088-094>096-030000-
   Southeast Minnesota

CITY           SKY/WX    TMP DP  RH WIND       PRES   REMARKS
ROCHESTER      MOSUNNY   73  57  57 W6        29.93S
RED WING       SUNNY     79  52  38 W8        29.88S
STANTON        SUNNY     76  55  48 SW10      29.89S
DODGE CENTER   SUNNY     73  57  56 W12       29.92F
WINONA         SUNNY     77  55  47 W5        29.89F
AUSTIN         SUNNY     73  55  53 W10G16    29.92F
PRESTON        SUNNY     71  61  71 CALM      29.93F
$$
ABBREVIATIONS USED IN REMARKS
   TC - TEMPERATURES IN CELSIUS
  WCI - WIND CHILL INDEX
   HX - HEAT INDEX
  VSB - VISIBILITY
$$



USA.gov is the U.S. government's official web portal to all federal, state and local government web resources and services.